Погода в Мугергане

Россия / Республика Дагестан     41°31′11″N   48°10′31″E
темп.,
°C
ветер,
м/с
пор.,
м/с
влажн.,
%
обл.,
%
осадки,
мм/ч
давл.,
гПа
погр.,
м
25 июня, сб
сб2500:00+17ююз227490 0.1 100922
03:00+14зюз118381 0.1 100912
06:00+18ссв00705 0.0 1009106
09:00+22св326222 0.0 1009758
12:00+25св43527 0.1 10081279
15:00+24св536022 0.2 1008886
18:00+20ссв327741 0.1 1009449
21:00+16з2292100 0.1 101027
26 июня, вс
вс2600:00+17зюз3386100 0.0 100933
03:00+17в1181100 0.1 100911
06:00+19ю1176100 0.0 1009119
09:00+23св3160100 0.0 1008744
12:00+25св325590 0.2 1006959
15:00+24ссв425817 0.3 1006724
18:00+22ссв3362100 0.2 1006268
21:00+19зюз447296 0.4 100851
27 июня, пн
пн2700:00+18юз447620 0.3 100941
03:00+17юз56650 0.3 100859
06:00+21зюз12570 0.0 100999
09:00+26ссв32450 0.0 1008897
12:00+28ссв53410 0.0 10081671
15:00+28ссв754526 0.1 10081637
18:00+25с565619 0.0 1008663
21:00+21юз45680 0.0 100958
28 июня, вт
вт2800:00+21зюз44590 0.0 100850
03:00+19зюз33550 0.0 100827
06:00+22зюз22530 0.0 1008105
09:00+26всв32430 0.0 1007962
12:00+28ссв53370 0.0 10071573
15:00+27ссв75420 0.1 10081404
18:00+22ссв43640 0.0 1010589
21:00+16з22870 0.0 101219
29 июня, ср
ср2900:00+18зюз33790 0.1 101232
03:00+17юз33770 0.1 101228
06:00+20ссз13580 0.0 1013322
09:00+24ссв34341 0.0 10121365
12:00+26ссв54313 0.0 10121910
15:00+25ссв64342 0.0 10121630
18:00+22ссв33480 0.0 1013630
21:00+15зюз22780 0.0 101512